AO-07 1 07530U 74089B 16266.65583244 -.00000023 00000-0 12836-3 0 9990 2 07530 101.5871 235.0802 0012276 119.9392 292.7650 12.53623215915334 FO-29 1 24278U 96046B 16266.70405277 -.00000025 00000-0 13885-4 0 9998 2 24278 98.5821 179.1501 0349635 310.2781 46.8271 13.53071052992706 RS-22 1 27939U 03042A 16266.79212287 .00000261 00000-0 55464-4 0 9995 2 27939 97.9029 54.7834 0012935 1.4166 105.9851 14.66454536694122 AO-73 1 39444U 13066AE 16266.17412961 .00000609 00000-0 82432-4 0 9990 2 39444 97.6708 315.5727 0060115 64.6113 296.1307 14.81176740151933 EO-79 1 40025U 14033R 16266.69499858 .00000657 00000-0 77339-4 0 9992 2 40025 97.9198 172.0903 0014049 102.2048 258.0743 14.88123293122705 XW-2A 1 40903U 15049E 16266.77852695 .00003725 00000-0 10456-3 0 9991 2 40903 97.4436 283.1379 0016844 140.7601 219.4868 15.37077187 56540 XW-2C 1 40906U 15049H 16266.74087275 .00001739 00000-0 99462-4 0 9993 2 40906 97.4552 271.7388 0017139 63.3646 296.9339 15.13864295 55766 LILACSAT-2 1 40908U 15049K 16266.75651095 .00001075 00000-0 64855-4 0 9994 2 40908 97.4618 271.5747 0017835 57.9757 302.3204 15.12711596 55737 UO-11 1 14781U 84021B 16266.14131817 .00000184 00000-0 29032-4 0 9996 2 14781 97.7387 315.1228 0008568 7.8999 352.2348 14.82795069750623 LO-19 1 20442U 90005G 16266.76081307 .00000034 00000-0 28351-4 0 9999 2 20442 98.5477 200.3645 0011015 213.5388 146.5100 14.32830152393328 AO-27 1 22825U 93061C 16266.62541765 .00000033 00000-0 30473-4 0 9992 2 22825 98.7706 223.5268 0009166 38.8675 321.3164 14.29968693199168 IO-26 1 22826U 93061D 16265.87819980 .00000033 00000-0 30149-4 0 9996 2 22826 98.7647 222.8869 0009596 32.1369 328.0396 14.30294528199225 GO-32 1 25397U 98043D 16266.83597965 .00000014 00000-0 25011-4 0 9991 2 25397 98.5750 209.2801 0002371 71.2890 288.8546 14.23602993945754 NO-44 1 26931U 01043C 16266.17758867 -.00000011 00000-0 27714-4 0 9997 2 26931 67.0508 62.6764 0005347 265.6830 94.3661 14.30424929782014 SO-50 1 27607U 02058C 16266.17495738 .00000121 00000-0 38187-4 0 9997 2 27607 64.5546 224.5078 0057158 195.0500 164.8905 14.75211699739577 CO-55 1 27844U 03031E 16266.76756428 .00000086 00000-0 58569-4 0 9999 2 27844 98.6936 273.6568 0010557 45.7023 314.5019 14.21977891686310 CO-57 1 27848U 03031J 16266.69560635 .00000069 00000-0 51465-4 0 9997 2 27848 98.7032 273.7247 0010572 53.8896 306.3259 14.21601011686191 CO-65 1 32785U 08021C 16265.82602413 .00000510 00000-0 61679-4 0 9991 2 32785 97.5953 295.9854 0012646 343.8999 16.1814 14.87664643454992 PRISM 1 33493U 09002B 16266.85370470 .00001557 00000-0 14745-3 0 9990 2 33493 98.2030 131.4901 0014287 242.4401 117.5373 14.95148974415823 TISAT-1 1 36799U 10035E 16266.76987184 .00000966 00000-0 10619-3 0 9995 2 36799 98.0384 18.6066 0013764 122.6622 237.5924 14.89983573335951 ALMASAT-1 1 38078U 12006B 16266.78765643 .00022886 36722-5 29036-3 0 9996 2 38078 69.4463 124.9278 0365013 320.8023 36.7200 15.08676648244277 DUCHIFAT-1 1 40021U 14033M 16266.69849644 .00001042 00000-0 11531-3 0 9990 2 40021 97.9233 173.4138 0014632 100.0728 260.2140 14.89468774122775 NANOSATCBR1 1 40024U 14033Q 16266.71870639 .00000800 00000-0 91246-4 0 9997 2 40024 97.9205 172.7084 0013913 100.3219 259.9566 14.88856095122748 DTUSAT-2 1 40030U 14033W 16266.70043854 .00000644 00000-0 76655-4 0 9997 2 40030 97.9173 171.4637 0013554 96.7736 263.5023 14.87757093122670 ANTELSAT 1 40034U 14033AA 16266.68104301 .00000433 00000-0 72482-4 0 9993 2 40034 97.8910 152.3760 0060620 72.7441 288.0404 14.73472710121534 MET-2/21 1 22782U 93055A 16265.91162846 .00000038 00000-0 20949-4 0 9999 2 22782 82.5477 236.4659 0023895 102.5538 316.6033 13.83790936164598 NOAA-15 1 25338U 98030A 16266.91110771 .00000082 00000-0 34527-4 0 9994 2 25338 98.7859 271.2693 0009544 262.7660 97.2913 14.25754102955236 NOAA-18 1 28654U 05018A 16266.97136128 .00000054 00000-0 29542-4 0 9992 2 28654 99.1980 276.4478 0015201 100.3622 259.9736 14.12305416584717 NOAA-19 1 33591U 09005A 16266.86889995 .00000421 00000-0 22957-3 0 9993 2 33591 99.0492 224.4928 0013231 307.0114 53.0331 14.12109910393416 HUBBLE 1 20580U 90037B 16265.64713418 .00001012 00000-0 52059-4 0 9997 2 20580 028.4707 341.6616 0002823 160.3621 352.5821 15.08504269249603 ISS 1 25544U 98067A 16266.59024019 .00003782 00000-0 57423-4 0 9996 2 25544 51.6418 292.1305 0006361 350.0741 10.0644 15.53909547 20145 CO-58 1 28895U 05043F 16266.40482140 .00000287 00000-0 64378-4 0 9997 2 28895 97.8402 75.4987 0015524 271.2561 88.6864 14.63256985581323 AAUSAT2 1 32788U 08021F 16266.06839122 .00001263 00000-0 12539-3 0 9996 2 32788 97.5945 305.7033 0010821 311.7338 48.2956 14.93408063455655 DO-64 1 32789U 08021G 16266.16632394 .00002956 00000-0 21972-3 0 9991 2 32789 97.5974 323.6714 0011456 294.5021 65.5010 15.03713372456574 CO-66 1 32791U 08021J 16266.03809483 .00000746 00000-0 83051-4 0 9997 2 32791 97.5954 299.6790 0012685 330.3623 29.6875 14.89902989455210 RS-30 1 32953U 08025A 16266.42946069 .00000038 00000-0 19992-3 0 9992 2 32953 82.5035 46.1669 0019635 148.5927 211.6329 12.43071751378158 JUGNU 1 37839U 11058B 16266.35268741 .00000345 00000-0 42327-4 0 9996 2 37839 19.9610 274.4478 0019168 110.8711 334.3567 14.12553734255781 SRMSAT 1 37841U 11058D 16266.53649324 .00000339 00000-0 41508-4 0 9992 2 37841 19.9722 309.5145 0012021 22.1839 103.3127 14.10551313255444 AO-71 1 37854U 11061E 16266.73105803 .00004812 00000-0 26886-3 0 9992 2 37854 101.6976 358.5652 0171642 145.8876 215.3507 15.02745303266741 HRBE 1 37855U 11061F 16265.88729844 .00004852 00000-0 26576-3 0 9995 2 37855 101.7081 355.2983 0185276 153.2842 207.8061 15.01648060266039 HORYU-2 1 38340U 12025D 16265.97070528 .00000489 00000-0 80537-4 0 9994 2 38340 098.3633 254.6771 0012993 067.2009 293.0570 14.75120983223331 RS-40 1 38735U 12041C 16266.65099029 .00000007 00000-0 -23323-4 0 9990 2 38735 82.4748 131.0161 0015979 251.6346 108.2996 12.42573347188462 BEESAT-3 1 39134U 13015E 16266.73444716 .00003133 00000-0 16964-3 0 9996 2 39134 64.8725 8.8749 0015751 309.3363 50.6366 15.16476510188904 BEESAT-2 1 39136U 13015G 16266.43335570 .00002487 00000-0 14630-3 0 9991 2 39136 64.8731 17.0392 0015258 308.6704 51.3054 15.14034927188724 ZACUBE-1 1 39417U 13066B 16266.13329194 .00000482 00000-0 67638-4 0 9991 2 39417 97.6696 314.8129 0060938 66.9431 293.8191 14.80488099153117 TRITON-1 1 39427U 13066M 16266.54297459 .00000406 00000-0 72899-4 0 9996 2 39427 97.6602 293.5975 0115936 125.4141 235.7958 14.67263535151794 GOMX-1 1 39430U 13066Q 16266.73310182 .00000329 00000-0 68911-4 0 9994 2 39430 97.6675 280.2515 0152200 167.1006 193.4137 14.58673121150940 LO-74 1 39440U 13066AA 16266.75659215 .00000494 00000-0 76275-4 0 9995 2 39440 97.6640 306.7818 0082548 87.7117 273.3541 14.75244262152667 SPROUT 1 39770U 14029E 16266.02424758 .00001535 00000-0 18338-3 0 9995 2 39770 97.8743 2.1841 0010481 122.5976 237.6268 14.85626765126315 EO-80 1 40032U 14033Y 16266.73088838 .00000644 00000-0 76706-4 0 9990 2 40032 97.9180 171.5029 0013525 96.9608 263.3147 14.87691365122678 VELOX-1 1 40057U 14034E 16266.76846660 .00000670 00000-0 10299-3 0 9999 2 40057 98.1941 357.0307 0010758 188.3870 171.7175 14.76826079120283 DAURIA DX 1 1 40071U 14037C 16266.71006230 .00000308 00000-0 47326-4 0 9994 2 40071 98.3331 1.3819 0008206 184.1128 176.0031 14.80875485119384 UKUBE-1 1 40074U 14037F 16266.76600040 .00000662 00000-0 88246-4 0 9990 2 40074 98.3382 3.9956 0004364 178.7466 181.3762 14.83195134119534 HODOYOSHI-1 1 40299U 14070B 16266.73448992 .00001625 00000-0 75034-4 0 9990 2 40299 97.4258 347.3249 0012447 315.9172 143.1778 15.21591429104262 CHUBUSAT-1 1 40300U 14070C 16266.77651007 .00001602 00000-0 76980-4 0 9996 2 40300 97.4215 345.3196 0020177 321.6051 133.8193 15.20125250104155 QSAT-EOS 1 40301U 14070D 16266.84028038 .00003305 00000-0 14780-3 0 9998 2 40301 97.4151 344.8509 0027757 318.6279 151.9908 15.21678722104159 FIREBIRD FU3 1 40377U 15003B 16266.29321677 .00007282 00000-0 32279-3 0 9993 2 40377 99.0960 31.6448 0142138 168.7215 191.7254 15.13319398 90462 FIREBIRD FU4 1 40378U 15003C 16266.81789371 .00007004 00000-0 31017-3 0 9992 2 40378 99.0962 32.2892 0142380 166.9041 193.5945 15.13341070 90549 GRIFEX 1 40379U 15003D 16266.80662736 .00004709 00000-0 21978-3 0 9991 2 40379 99.0966 31.1117 0146813 171.4163 188.9626 15.11384647 90474 NO-84 1 40654U 15025D 16263.51240277 .00006294 00000-0 13854-3 0 02288 2 40654 055.0025 001.3568 0198766 308.4925 049.8339 15.27300681038447 NO-83 1 40655U 15025E 16263.48397230 .00011380 00000-0 21830-3 0 02495 2 40655 054.9894 351.6224 0178453 313.4761 045.1444 15.33109800038550 DEORBITSAIL 1 40719U 15032E 16266.66355924 .00000809 00000-0 12575-3 0 9993 2 40719 98.0043 157.3823 0015379 286.4434 73.5085 14.75689332 64862 NUDT-PHONESAT 1 40900U 15049B 16266.77458691 .00004724 00000-0 23781-3 0 9991 2 40900 97.4466 272.8190 0016747 79.3059 281.0059 15.17561272 55875 XW-2D 1 40907U 15049J 16266.73891242 .00001615 00000-0 92467-4 0 9991 2 40907 97.4521 271.5778 0016509 62.1734 298.1169 15.13923543 55766 XW-2F 1 40910U 15049M 16266.73968868 .00004118 00000-0 22310-3 0 9994 2 40910 97.4551 271.8771 0017581 60.8379 299.5121 15.14500955 55661 XW-2B 1 40911U 15049N 16266.73962124 .00001814 00000-0 10353-3 0 9998 2 40911 97.4566 271.8091 0016383 62.2237 298.0653 15.13900771 55664 DCBB 1 40912U 15049P 16266.82759262 .00002846 00000-0 14907-3 0 9991 2 40912 97.4548 273.0217 0017934 55.8437 26.7128 15.16484441 55759 TW-1C 1 40926U 15051B 16266.84299506 .00011260 00000-0 30127-3 0 9993 2 40926 97.2660 302.7483 0015110 63.0686 41.6305 15.38092960 55762 TW-1A 1 40928U 15051D 16266.81975606 .00004363 00000-0 13460-3 0 9991 2 40928 97.2618 301.3027 0015693 78.2949 8.1321 15.33987787 55684 IO-86 1 40931U 15052B 16266.82311706 .00000727 00000-0 12304-4 0 9999 2 40931 6.0009 339.0330 0014005 60.2245 300.0369 14.76482982 53385 GomX-3 1 40949U 98067HA 16266.42697001 .00146267 19962-4 31116-3 0 9998 2 40949 51.6228 245.4991 0003785 60.7923 299.3464 15.98380946 55501 LQSat 1 40958U 15057A 16266.79791438 .00000146 00000-0 30552-4 0 9993 2 40958 98.0085 340.3722 0017592 198.5666 161.4897 14.72900496 51750 AO-85 1 40967U 15058D 16265.39442709 .00000633 00000-0 88199-4 0 02616 2 40967 064.7802 314.0977 0192216 174.3770 185.9546 14.75164050037467 ATHENOXAT-1 1 41168U 15077C 16266.46845644 .00003686 00000-0 17807-3 0 9991 2 41168 14.9871 323.6554 0012184 268.0572 210.8864 15.10413560 42489 ChubuSat-2 1 41338U 16012B 16266.64426848 .00000794 00000-0 56203-4 0 9992 2 41338 31.0042 11.1565 0014121 291.6250 68.2881 14.99495044 32797 ChubuSat-3 1 41339U 16012C 16266.61056945 .00000680 00000-0 46870-4 0 9990 2 41339 31.0114 10.9682 0013985 296.9882 62.9322 14.99718511 32766 Horyu-4 1 41340U 16012D 16266.62008636 .00001221 00000-0 88488-4 0 9990 2 41340 31.0062 9.9921 0014442 303.2755 56.6496 15.00195889 32799 OUFTI-1 1 41458U 16025C 16266.79126598 .00004484 00000-0 24888-3 0 9997 2 41458 98.2116 282.8717 0178849 102.3034 259.8274 15.01634941 22427 e-st@r-II 1 41459U 16025D 16265.99321653 .00004129 00000-0 23013-3 0 9993 2 41459 098.2117 282.0155 0178651 104.9433 257.1649 15.01578134022304 AAUSAT4 1 41460U 16025E 16266.77218752 .00004941 00000-0 27358-3 0 9995 2 41460 98.2102 282.8948 0176540 101.3722 260.7386 15.01953358 22421 MinXSS 1 41474U 98067HU 16266.90476307 .00040728 00000-0 44647-3 0 9996 2 41474 51.6423 286.7432 0002008 90.8359 269.3387 15.62570803 20185 CADRE 1 41475U 98067HV 16266.57570063 .00063961 00000-0 59342-3 0 9996 2 41475 51.6379 286.7694 0002927 54.1031 306.0237 15.66842326 20152 NODES 1 1 41477U 98067HX 16266.33590089 .00023813 00000-0 28867-3 0 9992 2 41477 51.6390 290.4257 0002340 82.9586 277.1673 15.60506605 19990 NODES 2 1 41478U 98067HY 16266.46739963 .00024001 00000-0 29155-3 0 9994 2 41478 51.6390 289.8027 0002250 82.1243 278.0006 15.60447749 20018 NuSat1-LUSEX 1 41557U 16033B 16266.84308384 .00003131 00000-0 12519-3 0 9993 2 41557 97.4907 340.1716 0013641 226.3924 237.6347 15.25795825 17644 NuSat2 1 41558U 16033C 16266.85167130 .00003116 00000-0 12511-3 0 9992 2 41558 97.4940 340.1902 0013068 223.7761 229.1485 15.25658478 17643 Lapan A3 1 41603U 16040E 16266.83775271 .00000497 00000-0 26925-4 0 9994 2 41603 97.5018 325.4103 0012201 290.3681 177.9888 15.19129638 14063 Swayam 1 41607U 16040J 16266.15704349 .00003142 00000-0 15148-3 0 9995 2 41607 97.4987 324.7105 0013318 294.4321 65.5523 15.19392429 13888 /EX